This page uses our WeatherBlox Daily Observations layout. Learn more.

Hourly Observations for April 22, 2018

Temp ( °F °C ) Dew Point ( °F °C ) Humidity (%) Winds ( mph kmh ) Pressure ( in mb ) Visibility ( mi km ) Precip ( " mm )
12:15 am 00:15 Clear 50 10 37 3 62 62 Calm 30.42 1030 10 16.09344 0 0
12:35 am 00:35 Clear 50 10 39 4 67 67 Calm 30.42 1030 10 16.09344 0 0
12:55 am 00:55 Clear 48 9 39 4 71 71 Calm 30.42 1030 10 16.09344 0 0
1:15 am 01:15 Clear 50 10 37 3 62 62 Calm 30.42 1030 10 16.09344 0 0
1:35 am 01:35 Partly Cloudy 50 10 37 3 62 62 Calm 30.42 1030 10 16.09344 0 0
1:55 am 01:55 Mostly Cloudy 50 10 37 3 62 62 Calm 30.42 1030 10 16.09344 0 0
2:15 am 02:15 Partly Cloudy 46 8 39 4 76 76 Calm 30.42 1030 10 16.09344 0 0
2:35 am 02:35 Partly Cloudy 46 8 37 3 71 71 SSW 3 6 30.39 1029 10 16.09344 0 0
2:55 am 02:55 Clear 48 9 37 3 66 66 SW 5 7 30.39 1029 10 16.09344 0 0
3:15 am 03:15 Clear 50 10 36 2 58 58 SSW 5 7 30.39 1029 10 16.09344 0 0
3:35 am 03:35 Partly Cloudy 50 10 36 2 58 58 Calm 30.42 1030 10 16.09344 0 0
3:55 am 03:55 Partly Cloudy 50 10 36 2 58 58 Calm 30.42 1030 10 16.09344 0 0
4:15 am 04:15 Partly Cloudy 50 10 36 2 58 58 Calm 30.42 1030 10 16.09344 0 0
4:35 am 04:35 Partly Cloudy 50 10 36 2 58 58 Calm 30.42 1030 10 16.09344 0 0
4:55 am 04:55 Clear 48 9 37 3 66 66 S 3 6 30.42 1030 10 16.09344 0 0
5:15 am 05:15 Clear 46 8 37 3 71 71 S 3 6 30.42 1030 10 16.09344 0 0
5:35 am 05:35 Clear 50 10 37 3 62 62 Calm 30.39 1029 10 16.09344 0 0
5:55 am 05:55 Clear 46 8 37 3 71 71 Calm 30.42 1030 10 16.09344 0 0
6:15 am 06:15 Mostly Cloudy 48 9 37 3 66 66 Calm 30.42 1030 10 16.09344 0 0
6:35 am 06:35 Cloudy 48 9 39 4 71 71 NE 3 6 30.42 1030 10 16.09344 0 0
6:55 am 06:55 Mostly Cloudy 48 9 39 4 71 71 NE 3 6 30.42 1030 10 16.09344 0 0
7:15 am 07:15 Partly Cloudy 48 9 41 5 76 76 Calm 30.42 1030 10 16.09344 0 0
7:35 am 07:35 Sunny 48 9 41 5 76 76 Calm 30.45 1031 10 16.09344 0 0
7:55 am 07:55 Sunny 48 9 41 5 76 76 ENE 3 6 30.45 1031 10 16.09344 0 0
8:15 am 08:15 Sunny 50 10 41 5 71 71 E 3 6 30.45 1031 10 16.09344 0 0
8:35 am 08:35 Sunny 52 11 43 6 72 72 SE 3 6 30.45 1031 10 16.09344 0 0
8:55 am 08:55 Sunny 52 11 43 6 72 72 Calm 30.45 1031 10 16.09344 0 0
9:15 am 09:15 Sunny 54 12 43 6 67 67 SE 5 7 30.45 1031 10 16.09344 0 0
9:35 am 09:35 Sunny 54 12 43 6 67 67 SE 6 9 30.45 1031 10 16.09344 0 0
9:55 am 09:55 Sunny 55 13 43 6 63 63 E 6 9 30.42 1030 10 16.09344 0 0
10:15 am 10:15 Sunny 55 13 43 6 63 63 E 8 13 30.42 1030 10 16.09344 0 0
10:35 am 10:35 Sunny 57 14 45 7 63 63 E 6 9 30.39 1029 10 16.09344 0 0
10:55 am 10:55 Sunny 59 15 45 7 59 59 E 7 11 30.39 1029 10 16.09344 0 0
11:15 am 11:15 Sunny 61 16 43 6 52 52 E 9 15 30.39 1029 10 16.09344 0 0
11:35 am 11:35 Sunny 63 17 43 6 49 49 SE 7 11 30.39 1029 10 16.09344 0 0
11:55 am 11:55 Sunny 63 17 43 6 49 49 ENE 6 9 30.39 1029 10 16.09344 0 0
12:15 pm 12:15 Sunny 64 18 43 6 46 46 E 9 15 30.36 1028 10 16.09344 0 0
12:35 pm 12:35 Sunny 64 18 41 5 43 43 E 7 11 30.36 1028 10 16.09344 0 0
12:55 pm 12:55 Sunny 64 18 41 5 43 43 ESE 10 17 30.36 1028 10 16.09344 0 0
1:15 pm 13:15 Sunny 64 18 41 5 43 43 SE 8 13 30.36 1028 10 16.09344 0 0
1:35 pm 13:35 Sunny 64 18 43 6 46 46 SE 9 15 30.36 1028 10 16.09344 0 0
1:55 pm 13:55 Partly Cloudy 64 18 43 6 46 46 SE 9 15 30.36 1028 10 16.09344 0 0
2:15 pm 14:15 Partly Cloudy 66 19 45 7 46 46 SE 8 13 30.36 1028 10 16.09344 0 0
2:35 pm 14:35 Partly Cloudy 66 19 43 6 43 43 E 8 13 30.33 1027 10 16.09344 0 0
2:55 pm 14:55 Cloudy 66 19 43 6 43 43 NE 5 7 30.33 1027 10 16.09344 0 0
3:15 pm 15:15 Cloudy 68 20 43 6 40 40 S 5 7 30.33 1027 10 16.09344 0 0
3:35 pm 15:35 Cloudy 66 19 43 6 43 43 SE 7 11 30.33 1027 10 16.09344 0 0
3:55 pm 15:55 Mostly Cloudy 68 20 43 6 40 40 SSE 9 15 30.3 1026 10 16.09344 0 0
4:15 pm 16:15 Cloudy 68 20 43 6 40 40 ESE 7 11 30.3 1026 10 16.09344 0 0
4:35 pm 16:35 Cloudy 66 19 43 6 43 43 ESE 5 7 30.3 1026 10 16.09344 0 0
4:55 pm 16:55 Cloudy 66 19 45 7 46 46 ESE 7 11 30.3 1026 10 16.09344 0 0
5:15 pm 17:15 Cloudy 66 19 45 7 46 46 SE 8 13 30.3 1026 10 16.09344 0 0
5:35 pm 17:35 Mostly Cloudy 66 19 45 7 46 46 SE 8 13 30.3 1026 10 16.09344 0 0
5:55 pm 17:55 Mostly Cloudy 66 19 43 6 43 43 SE 9 15 30.3 1026 10 16.09344 0 0
6:15 pm 18:15 Mostly Cloudy 64 18 45 7 49 49 E 7 11 30.3 1026 10 16.09344 0 0
6:35 pm 18:35 Mostly Cloudy 64 18 43 6 46 46 ESE 9 15 30.3 1026 10 16.09344 0 0
6:55 pm 18:55 Partly Cloudy 64 18 43 6 46 46 E 12 19 30.33 1027 10 16.09344 0 0
7:15 pm 19:15 Sunny 63 17 41 5 45 45 ESE 7 11 30.33 1027 10 16.09344 0 0
7:35 pm 19:35 Sunny 63 17 39 4 42 42 SE 6 9 30.33 1027 10 16.09344 0 0
7:55 pm 19:55 Clear 63 17 39 4 42 42 SE 7 11 30.33 1027 10 16.09344 0 0
8:15 pm 20:15 Clear 61 16 41 5 48 48 SE 6 9 30.33 1027 10 16.09344 0 0
8:35 pm 20:35 Clear 61 16 41 5 48 48 SE 7 11 30.36 1028 10 16.09344 0 0
8:55 pm 20:55 Clear 59 15 41 5 51 51 SE 6 9 30.36 1028 10 16.09344 0 0
9:15 pm 21:15 Clear 59 15 41 5 51 51 SE 5 7 30.36 1028 10 16.09344 0 0
9:35 pm 21:35 Partly Cloudy 59 15 41 5 51 51 ESE 3 6 30.39 1029 10 16.09344 0 0
9:55 pm 21:55 Partly Cloudy 57 14 41 5 55 55 ESE 3 6 30.39 1029 10 16.09344 0 0
10:15 pm 22:15 Clear 57 14 41 5 55 55 SE 5 7 30.39 1029 10 16.09344 0 0
10:35 pm 22:35 Partly Cloudy 55 13 41 5 59 59 SE 5 7 30.42 1030 10 16.09344 0 0
10:55 pm 22:55 Mostly Cloudy 55 13 41 5 59 59 SE 5 7 30.42 1030 10 16.09344 0 0
11:15 pm 23:15 Cloudy 55 13 41 5 59 59 SE 5 7 30.42 1030 10 16.09344 0 0
11:35 pm 23:35 Cloudy 55 13 41 5 59 59 SE 6 9 30.42 1030 10 16.09344 0 0
11:55 pm 23:55 Cloudy 55 13 41 5 59 59 SE 5 7 30.42 1030 10 16.09344 0 0